Flag for Switzerland Weather past 2 weeks in Worb, Bern, Switzerland

Now
63 °F

Partly sunny.


Feels Like: 63 °F
Forecast: 46 / 72 °F
Wind: 6 mph from West

Location: Bern / Belp

Current Time: May 30, 2015 at 9:04:06 PM

Latest Report: May 30, 2015 at 8:20 PM


Visibility: N/A

Pressure: 30.04 "Hg

Humidity: 56%

Dew point: 46 °F

Location of WorbLocation

Historic Weather in Worb — Graph

°F

Worb temperature yesterday

Maximum temperature yesterday: 75 °F (at 2:20 PM)
Minimum temperature yesterday: 45 °F (at 3:20 AM)
Average temperature yesterday: 62 °F

Past Weeks' High & Low Weather Summary

 TemperatureHumidityPressure
High75 °F (May 18, 4:20 PM)100% (May 15, 8:50 PM)30.30 "Hg (May 15, 8:50 PM)
Low37 °F (May 28, 3:50 AM)23% (May 28, 3:20 PM)29.77 "Hg (May 18, 5:50 PM)
Average55 °F74%30.07 "Hg
* Reported May 15 7:20 PM — May 30 7:50 PM, Worb, Weather by CustomWeather, © 2015

Note: Actual official high and low records may vary slightly from our data, if they occured in-between our weather recording intervals... More about our weather records

Advertising

Worb weather history for previous 24 hours

 ConditionsComfort  
Time TempWeatherWind HumidityBarometerVisibility
7:50 PM
Sat, May 30
64 °FPartly sunny.8 mph52%30.04 "HgN/A
7:20 PM64 °FPartly sunny.10 mph52%30.04 "HgN/A
6:50 PM66 °FPartly sunny.9 mph49%30.04 "HgN/A
6:20 PM68 °FPartly sunny.12 mph46%30.04 "HgN/A
5:50 PM68 °FPartly sunny.13 mph46%30.04 "HgN/A
5:20 PM68 °FBroken clouds.14 mph46%30.01 "HgN/A
4:50 PM68 °FBroken clouds.12 mph49%30.01 "HgN/A
4:20 PM68 °FBroken clouds.14 mph53%30.01 "HgN/A
3:50 PM68 °FBroken clouds.12 mph53%30.01 "HgN/A
3:20 PM70 °FBroken clouds.12 mph46%30.01 "HgN/A
2:50 PM68 °FBroken clouds.12 mph46%30.01 "HgN/A
2:20 PM68 °FScattered clouds.15 mph46%30.01 "HgN/A
1:50 PM66 °FScattered clouds.10 mph52%30.01 "HgN/A
1:20 PM68 °FScattered clouds.13 mph49%30.04 "HgN/A
12:50 PM66 °FScattered clouds.12 mph49%30.04 "HgN/A
12:20 PM64 °FScattered clouds.14 mph56%30.04 "HgN/A
11:50 AM63 °FScattered clouds.14 mph59%30.04 "HgN/A
11:20 AM63 °FPartly sunny.9 mph59%30.04 "HgN/A
10:50 AM63 °FPartly sunny.13 mph59%30.04 "HgN/A
10:20 AM63 °FPartly sunny.13 mph56%30.01 "HgN/A
9:50 AM61 °FPartly sunny.13 mph59%30.01 "HgN/A
9:20 AM61 °FPartly sunny.10 mph59%30.01 "HgN/A
8:50 AM59 °FPartly sunny.12 mph63%30.01 "HgN/A
8:20 AM59 °FPartly sunny.8 mph72%30.01 "HgN/A
7:50 AM55 °FPassing clouds.8 mph94%30.01 "HgN/A
7:20 AM52 °FPassing clouds.1 mph100%30.01 "HgN/A
6:50 AM50 °FScattered clouds.1 mph100%30.01 "HgN/A
6:20 AM52 °FPassing clouds.3 mph94%29.98 "HgN/A
5:20 AM52 °FPassing clouds.2 mph94%29.98 "Hg6 mi
4:50 AM52 °FPartly cloudy.1 mph94%29.98 "Hg4 mi
4:20 AM52 °FPartly cloudy.2 mph100%29.98 "HgN/A
3:50 AM54 °FOvercast.2 mph94%29.98 "HgN/A
3:20 AM54 °FOvercast.1 mph94%29.98 "HgN/A
2:50 AM54 °FPassing clouds.2 mph94%29.98 "HgN/A
2:20 AM54 °FPartly cloudy.2 mph94%29.98 "HgN/A
1:50 AM57 °FPartly cloudy.8 mph82%29.98 "HgN/A
1:20 AM59 °FRain. Partly cloudy.10 mph72%29.98 "HgN/A
12:50 AM63 °FOvercast.3 mph59%29.95 "HgN/A
12:20 AM57 °FPassing clouds.5 mph82%29.95 "HgN/A
11:50 PM
Fri, May 29
63 °FThunderstorms. Passing clouds.10 mph56%29.95 "HgN/A
11:20 PM63 °FPassing clouds.9 mph59%29.92 "HgN/A
10:20 PM64 °FPassing clouds.9 mph56%29.92 "HgN/A
9:50 PM66 °FPassing clouds.7 mph52%29.89 "HgN/A
9:20 PM66 °FPassing clouds.9 mph52%29.89 "HgN/A
Weather by CustomWeather, © 2015

See weather overviewHow to use our weather pages